User: anonymous   Login
Location: Unspecified
(0.0000°N, 0.0000°E)
Time: 00:03:00
(UTC+00:00)
Language:

STARLINK-1065 - Orbit

View from above orbital plane
View from above orbital plane
View from above satellite
View from above satellite

Ground track
Ground track

The orbit data is extracted from the following two-line orbital elements,

1 44770U 19074BK  20057.34894974 +.00001310 +00000-0 +10894-3 0  9995
2 44770 053.0056 037.7678 0001749 046.9576 313.1558 15.05616354016121
Epoch (UTC): 26 February 2020 08:22:29
Eccentricity: 0.0001749
inclination: 53.0056°
perigee height: 548 km
apogee height: 551 km
right ascension of ascending node: 37.7678°
argument of perigee: 46.9576°
revolutions per day: 15.05616354
mean anomaly at epoch: 313.1558°
orbit number at epoch: 1612

The dashed part of the orbit path shows where the satellite is in the earth's shadow,  

DLR